Date String (YYYY-MM-DD hh:mm:ss) UTC,Instrument flags,absolute air pressure of the measurement (hPa),sample flow rate (lpm),inlet stack bypass flow (lpm),air temperature of the measurement (°C),ambient temperature measured by the external sensor (°C),aerosol sample conditioner tube jacket temperature (°C),OPC LED temperature (°C),internal box temperature (°C),relative humidity of the measurement (%),span deviation,mass concentration of particles derived from Lorenz-Mie calculation of OPC scattering (μg/m³),mass concentration of particles derived from Lorenz-Mie calculation of OPC scattering (μg/m³),mass concentration of particles derived from Lorenz-Mie calculation of OPC scattering (μg/m³)
DateTimeUTC,F1_M11,P_M11,Q1_M11,Q2_M11,T1_M11,T2_M11,T3_M11,T4_M11,T5_M11,U1_M11,ZSPAN_M11,X0_M11,X2_M11,X1_M11
2024-06-18 11:00:00,SystemResetWarning,0820.6,4.99,000.00,030.4,029.4,000.0,039.2,032.1,015.7,0000.0,0083.13,0010.23,0003.16
2024-06-18 11:01:00,SystemResetWarning,0820.6,5.00,000.00,030.4,029.4,000.0,039.2,032.0,015.6,0000.0,0085.12,0010.32,0003.14
2024-06-18 11:02:00,SystemResetWarning,0820.6,5.00,000.00,030.3,029.4,000.0,039.1,032.0,015.5,0000.0,0084.47,0010.41,0003.14
2024-06-18 11:03:00,SystemResetWarning,0820.7,5.00,000.00,030.3,029.3,000.0,039.1,032.0,015.6,0000.0,0086.36,0010.59,0003.13
2024-06-18 11:04:00,SystemResetWarning,0820.8,4.99,000.00,030.3,029.3,000.0,039.1,032.0,015.5,0000.0,0087.82,0010.63,0003.11
2024-06-18 11:05:00,SystemResetWarning,0820.8,5.01,000.00,030.3,029.3,000.0,039.1,031.9,015.3,0000.0,0090.90,0010.65,0003.11
2024-06-18 11:06:00,SystemResetWarning,0820.8,5.00,000.00,030.2,029.2,000.0,039.1,031.9,015.2,0000.0,0092.48,0010.75,0003.12
2024-06-18 11:07:00,SystemResetWarning,0820.9,5.00,000.00,030.2,029.2,000.0,039.0,031.9,015.2,0000.0,0095.51,0010.92,0003.11
2024-06-18 11:08:00,SystemResetWarning,0821.1,5.00,000.00,030.2,029.2,000.0,039.0,031.8,015.2,0000.0,0099.12,0011.08,0003.10
2024-06-18 11:09:00,SystemResetWarning,0821.1,5.00,000.00,030.1,029.2,000.0,039.0,031.8,015.4,0000.0,0103.24,0011.37,0003.10
2024-06-18 11:10:00,SystemResetWarning,0821.1,5.01,000.00,030.1,029.1,000.0,039.0,031.8,015.5,0000.0,0107.66,0011.36,0003.09
2024-06-18 11:11:00,SystemResetWarning,0821.4,5.00,000.00,030.1,029.1,000.0,038.9,031.8,015.4,0000.0,0107.39,0011.49,0003.10
2024-06-18 11:12:00,SystemResetWarning,0821.2,5.00,000.00,030.1,029.1,000.0,038.9,031.7,015.2,0000.0,0107.37,0011.60,0003.10
2024-06-18 11:13:00,SystemResetWarning,0821.2,5.01,000.00,030.0,029.0,000.0,038.9,031.7,015.0,0000.0,0110.77,0011.66,0003.09
2024-06-18 11:14:00,SystemResetWarning,0821.2,5.01,000.00,030.0,029.0,000.0,038.9,031.7,014.8,0000.0,0112.54,0011.51,0003.09
2024-06-18 11:15:00,SystemResetWarning,0821.2,5.00,000.00,030.0,028.9,000.0,038.8,031.6,014.8,0000.0,0115.21,0011.53,0003.10
2024-06-18 11:16:00,SystemResetWarning,0821.2,4.98,000.00,029.9,028.9,000.0,038.8,031.6,014.7,0000.0,0118.04,0011.66,0003.09
2024-06-18 11:17:00,SystemResetWarning,0821.2,5.00,000.00,029.9,028.9,000.0,038.8,031.5,014.8,0000.0,0114.38,0011.65,0003.06
2024-06-18 11:18:00,SystemResetWarning,0821.3,5.00,000.00,029.9,028.9,000.0,038.8,031.6,014.7,0000.0,0113.49,0011.62,0003.06
2024-06-18 11:19:00,SystemResetWarning,0821.3,5.01,000.00,029.9,028.8,000.0,038.7,031.5,014.7,0000.0,0113.89,0011.66,0003.04
2024-06-18 11:20:00,SystemResetWarning,0821.3,5.00,000.00,029.8,028.8,000.0,038.7,031.5,014.6,0000.0,0113.26,0011.49,0003.04
2024-06-18 11:21:00,SystemResetWarning,0821.7,4.98,000.00,029.8,028.8,000.0,038.7,031.5,014.6,0000.0,0109.31,0011.41,0003.04
2024-06-18 11:22:00,SystemResetWarning,0821.9,5.01,000.00,029.8,028.8,000.0,038.7,031.5,014.7,0000.0,0109.23,0011.38,0003.01
2024-06-18 11:23:00,SystemResetWarning,0821.6,5.01,000.00,029.8,028.8,000.0,038.6,031.5,014.8,0000.0,0110.64,0011.41,0002.99
2024-06-18 11:24:00,SystemResetWarning,0821.6,5.00,000.00,029.8,028.8,000.0,038.6,031.5,014.7,0000.0,0106.50,0011.36,0002.98
2024-06-18 11:25:00,SystemResetWarning,0821.6,4.99,000.00,029.7,028.8,000.0,038.6,031.4,014.7,0000.0,0106.48,0011.46,0002.98
2024-06-18 11:26:00,SystemResetWarning,0821.7,5.00,000.00,029.7,028.7,000.0,038.6,031.4,014.7,0000.0,0108.53,0011.50,0002.96
2024-06-18 11:27:00,SystemResetWarning,0821.9,4.99,000.00,029.7,028.7,000.0,038.5,031.4,014.8,0000.0,0107.86,0011.46,0002.95
2024-06-18 11:28:00,SystemResetWarning,0822.0,5.00,000.00,029.7,028.7,000.0,038.5,031.4,014.5,0000.0,0106.40,0011.64,0002.97
2024-06-18 11:29:00,SystemResetWarning,0821.6,5.01,000.00,029.6,028.7,000.0,038.5,031.3,014.5,0000.0,0106.71,0011.67,0002.97
2024-06-18 11:30:00,SystemResetWarning,0821.6,5.01,000.00,029.6,028.6,000.0,038.5,031.3,014.5,0000.0,0102.46,0011.58,0002.97
2024-06-18 11:31:00,SystemResetWarning,0821.7,5.00,000.00,029.6,028.6,000.0,038.5,031.3,014.7,0000.0,0097.16,0011.31,0002.96
2024-06-18 11:32:00,SystemResetWarning,0821.8,5.00,000.00,029.6,028.6,000.0,038.4,031.3,014.6,0000.0,0098.07,0011.29,0002.95
2024-06-18 11:33:00,SystemResetWarning,0821.8,5.00,000.00,029.6,028.6,000.0,038.4,031.3,014.5,0000.0,0096.89,0011.30,0002.95
2024-06-18 11:34:00,SystemResetWarning,0821.9,4.99,000.00,029.5,028.6,000.0,038.4,031.3,014.6,0000.0,0096.33,0011.15,0002.95
2024-06-18 11:35:00,SystemResetWarning,0822.0,5.00,000.00,029.5,028.5,000.0,038.4,031.3,014.6,0000.0,0099.66,0011.13,0002.92
2024-06-18 11:36:00,SystemResetWarning,0822.0,5.00,000.00,029.5,028.5,000.0,038.4,031.3,014.7,0000.0,0099.61,0011.12,0002.90
2024-06-18 11:37:00,SystemResetWarning,0821.9,5.00,000.00,029.5,028.5,000.0,038.3,031.2,014.7,0000.0,0096.57,0011.25,0002.89
2024-06-18 11:38:00,SystemResetWarning,0821.9,5.00,000.00,029.5,028.5,000.0,038.3,031.3,014.7,0000.0,0093.37,0011.29,0002.88
2024-06-18 11:39:00,SystemResetWarning,0821.9,4.99,000.00,029.5,028.6,000.0,038.3,031.3,014.6,0000.0,0093.88,0011.22,0002.85
2024-06-18 11:40:00,SystemResetWarning,0822.0,4.99,000.00,029.5,028.6,000.0,038.3,031.3,014.3,0000.0,0094.76,0011.14,0002.82
2024-06-18 11:41:00,SystemResetWarning,0822.0,5.01,000.00,029.5,028.6,000.0,038.3,031.3,014.4,0000.0,0096.14,0011.10,0002.83
2024-06-18 11:42:00,SystemResetWarning,0822.0,5.01,000.00,029.5,028.6,000.0,038.3,031.3,014.4,0000.0,0097.49,0011.28,0002.84
2024-06-18 11:43:00,SystemResetWarning,0822.1,5.00,000.00,029.5,028.6,000.0,038.3,031.3,014.3,0000.0,0098.69,0011.28,0002.83
2024-06-18 11:44:00,SystemResetWarning,0822.1,5.00,000.00,029.5,028.6,000.0,038.3,031.3,014.4,0000.0,0097.90,0011.18,0002.79
2024-06-18 11:45:00,SystemResetWarning,0822.2,4.99,000.00,029.5,028.6,000.0,038.3,031.3,014.5,0000.0,0096.00,0011.12,0002.78
2024-06-18 11:46:00,SystemResetWarning,0822.2,5.00,000.00,029.5,028.6,000.0,038.3,031.3,014.5,0000.0,0094.11,0010.94,0002.80
2024-06-18 11:47:00,SystemResetWarning,0822.2,5.00,000.00,029.5,028.6,000.0,038.3,031.3,014.5,0000.0,0092.48,0010.84,0002.81
2024-06-18 11:48:00,SystemResetWarning,0822.2,5.00,000.00,029.5,028.6,000.0,038.2,031.3,014.3,0000.0,0092.49,0010.62,0002.80
2024-06-18 11:49:00,SystemResetWarning,0822.2,5.01,000.00,029.5,028.6,000.0,038.2,031.2,014.3,0000.0,0090.52,0010.34,0002.77
2024-06-18 11:50:00,SystemResetWarning,0822.2,5.01,000.00,029.5,028.6,000.0,038.2,031.2,014.3,0000.0,0091.27,0010.30,0002.77
2024-06-18 11:51:00,SystemResetWarning,0822.3,5.00,000.00,029.4,028.5,000.0,038.2,031.2,014.3,0000.0,0093.49,0010.18,0002.77
2024-06-18 11:52:00,SystemResetWarning,0822.4,5.00,000.00,029.4,028.5,000.0,038.2,031.2,014.2,0000.0,0092.04,0010.19,0002.75
2024-06-18 11:53:00,SystemResetWarning,0822.4,5.01,000.00,029.4,028.5,000.0,038.2,031.1,014.1,0000.0,0089.58,0010.04,0002.72
2024-06-18 11:54:00,SystemResetWarning,0822.4,5.00,000.00,029.4,028.5,000.0,038.2,031.1,014.1,0000.0,0086.80,0009.95,0002.70
2024-06-18 11:55:00,SystemResetWarning,0822.4,5.00,000.00,029.3,028.4,000.0,038.1,031.1,014.0,0000.0,0083.83,0009.76,0002.71
2024-06-18 11:56:00,SystemResetWarning,0822.4,5.00,000.00,029.3,028.4,000.0,038.1,031.1,014.1,0000.0,0081.52,0009.69,0002.72
2024-06-18 11:57:00,SystemResetWarning,0822.4,5.00,000.00,029.3,028.4,000.0,038.1,031.1,014.2,0000.0,0078.63,0009.65,0002.72
2024-06-18 11:58:00,SystemResetWarning,0822.4,5.01,000.00,029.3,028.3,000.0,038.1,031.0,014.1,0000.0,0074.92,0009.51,0002.70
2024-06-18 11:59:00,SystemResetWarning,0822.5,5.00,000.00,029.3,028.3,000.0,038.1,031.0,014.0,0000.0,0071.24,0009.36,0002.69
